FENGYUN 1C DEB

Satellite information

Favourite Embed

Satellite Type and Status

DEBRISIN ORBIT

Key statistics

Satellite FENGYUN 1C DEB at a glance.

Uptime

9721

Days in orbit

Revolutions

≈ 14.0

Per day

Orbit

SSO

Sun Synchronous Orbit

Inclination

99.1

Latest

Satellite identification and parameters

Extended collection of information and parameters for FENGYUN 1C DEB.

Object identification

Identified? True

Debris? True

Object name: FENGYUN 1C DEB

International designator: 1999-025TH

Object number (NORAD): 30152

Object ID (CCSDS): 30152

Country: PEOPLES REPUBLIC OF CHINA (PRC)

Current information (Y/N): Y

RCS size: SMALL

Orbital parameters

Period: 103.098 minutes

Inclination: 99.0798 deg

SMA: 7283.259 km

Apoapsis: 1023.406 km

Periapsis: 786.842 km

RAAN: 211.2218 deg

Eccentricy: 0.0162403

Argument of periapsis: 66.5816 deg

Mean anomaly: 295.2331 deg

Mean motion: 13.96735342 rev/day

Mean motion (dot): 0.00002865 rev/day2

B* drag term: 0.0018739 1/REarth

Two-line elements (TLE)

Creation date: Dec. 19, 2025, 9:26 p.m.

Reference frame: TEME

Reference center: EARTH

Epoch: Dec. 19, 2025, 1:19 p.m. UTC

TLE line 0: 0 FENGYUN 1C DEB

TLE line 1: 1 30152U 99025TH 25353.55552177 .00002865 00000-0 18739-2 0 9992

TLE line 2: 2 30152 99.0798 211.2218 0162403 66.5816 295.2331 13.96735342954736

Live tracking on map

Real-time ground track for satellite FENGYUN 1C DEB.

In-orbit conjunctions

A list of the most updated potential collisions computed for object FENGYUN 1C DEB.

Target Orbit TCA Probability of collision Miss distance Type
SL-8 R/B LEO 2025-01-09 01:10:49 0.0001119708 293.0 (m) ROCKET BODY

Associated space launch

Chinese polar orbiting meteorological satellite

FENGYUN 1C DEB was lifted into orbit during the mission ‘Long March 4B | Feng Yun 1C’, on board a Long March 4B space rocket.

The launch took place on May 10, 1999, 1:33 a.m. from Launch Complex 7.

For more information about the launch, click the button.

Launch to space Long March 4B | Feng Yun 1C
Long March 4B | Feng Yun 1C

Agency: N/A

Status: Launch Successful

Launch date: May 10, 1999, 1:33 a.m. UTC

Rocket: Long March 4B

Launch pad: Launch Complex 7

Location: Taiyuan Satellite Launch Center, People's Republic of China

...

Latest news about this satellite

There are no fresh news available about this satellite. Check back as we update our databases every day.


Newsletter sign-up

Weekly statistics, charts and insights to help you stay on top of the space industry.